Hourly Data Report for July 03, 2021

VICTORIA INTL A
BRITISH COLUMBIA
Current Station Operator: NAVCAN

48°38'50.000" N
123°25'33.000" W
19.50 m
1018621
71799
YYJ

Download Data

Hourly Data (July 2021)
Hourly Data Report for July 3, 2021
TIME
LST
Temp Definition
°C
Dew Point Definition
°C
Rel Hum Definition
%
Precip. Amount Definition
mm

Wind Dir Definition
10's deg

Wind Spd Definition
km/h
Visibility Definition
km
Stn Press Definition
kPa
Hmdx Definition


Wind Chill Definition


Weather Definition


00:00 15.0 13.8 92   21 3 32.2 101.31     LegendNANA
01:00 15.1 13.0 87   36 1 32.2 101.29     Mainly Clear
02:00 15.4 14.3 93   20 3 32.2 101.30     LegendNANA
03:00 13.8 13.8 100   25 4 32.2 101.30     LegendNANA
04:00 13.1 13.1 100   36 3 32.2 101.33     Mostly Cloudy
05:00 14.4 14.4 100   13 7 32.2 101.33     LegendNANA
06:00 15.4 13.7 89   9 7 48.3 101.35     LegendNANA
07:00 17.7 13.5 76   12 4 48.3 101.32     Clear
08:00 17.5 12.6 73   12 10 48.3 101.34     LegendNANA
09:00 19.6 13.1 66   12 10 48.3 101.35     LegendNANA
10:00 19.6 13.2 66   11 15 48.3 101.36     Mainly Clear
11:00 20.0 12.9 64   11 15 48.3 101.35     LegendNANA
12:00 20.6 13.0 62   11 14 48.3 101.32     LegendNANA
13:00 20.7 13.0 61   12 18 48.3 101.28     Clear
14:00 22.3 13.0 55   9 18 48.3 101.24 25   LegendNANA
15:00 22.9 13.2 54   14 14 48.3 101.19 26   LegendNANA
16:00 21.3 12.8 58   13 19 48.3 101.16     Clear
17:00 21.6 11.9 53   12 14 48.3 101.12     LegendNANA
18:00 20.5 12.0 58   9 13 48.3 101.09     LegendNANA
19:00 19.6 12.4 63   9 9 48.3 101.06     Clear
20:00 17.1 12.5 74   12 6 48.3 101.05     LegendNANA
21:00 16.5 12.7 78   8 5 48.3 101.10     LegendNANA
22:00 16.4 12.8 79   19 4 32.2 101.13     Clear
23:00 17.1 13.0 76   19 3 24.1 101.11     LegendNANA

Notes on Data Quality.

Legend

  • E = Estimated
  • M = Missing
  • NA = Not Available*
  • [empty] = Indicates an unobserved value
Date modified: